[[{"header":{"parameterUnit":"m.s-1","parameterCategory":1,"la1":30.2991,"la2":30.254,"lo1":-89.0895,"lo2":-89.0444,"dy":0.0017,"dx":0.0017,"nx":28,"ny":28,"refTime":"2024-11-30T09:00:00:Z","depth":0,"parameterNumber":2,"parameterNumberName":"U-component_of_WINDS"},"data":[0,0,0,0,0,0,0,0,0,0,0,0,0,0,0,0,0,0,0,0,0,0,0,0,0,0,0,0,0,0,0,0,0,0,0,0,0,0,0,0,0,0,0,0,0,0,0,0,0,0,0,0,0,0,0,0,0,0,-2.5697,-2.5698,0,-2.5752,-2.5753,-2.5753,-2.5635,-2.5631,-2.5627,-2.5623,-2.5682,-2.5687,-2.5692,0,0,0,0,0,0,0,0,0,0,0,0,0,-2.549,-2.5495,-2.5697,-2.5698,-2.5698,-2.5752,-2.5753,-2.5753,-2.5635,-2.5631,-2.5626,-2.5622,-2.568,-2.5686,-2.5692,0,0,0,0,0,0,0,0,0,0,0,0,0,-2.5566,-2.5496,-2.5697,-2.5646,-2.5642,-2.5752,-2.5753,-2.5754,-2.5636,-2.563,-2.5625,-2.5619,-2.5678,-2.5685,-2.5693,-2.5856,0,0,-2.5717,-2.572,0,0,0,0,0,0,0,0,-2.5562,-2.5574,-2.5653,-2.5649,-2.5645,-2.568,-2.5701,-2.5788,-2.5638,-2.5638,-2.5623,-2.5616,-2.5686,-2.5693,-2.5716,-2.5859,-2.5861,-2.5717,-2.5722,-2.5725,-2.5727,0,0,0,0,0,0,0,-2.5557,-2.5571,-2.5719,-2.5654,-2.5649,-2.562,-2.5625,-2.5717,-2.5694,-2.5638,-2.5629,-2.5637,-2.5683,-2.5709,-2.5716,-2.5862,-2.5717,-2.5724,-2.5729,-2.5732,-2.6141,-2.6147,0,0,0,0,0,0,-2.5558,-2.5567,-2.5717,-2.572,-2.5589,-2.5629,-2.5634,-2.5675,-2.5693,-2.569,-2.5642,-2.5632,-2.5698,-2.5707,-2.5718,-2.5911,-2.5725,-2.5732,-2.5737,-2.6135,-2.6142,-2.6149,0,0,0,0,0,0,-2.5554,-2.5573,-2.5715,-2.5642,-2.5657,-2.5638,-2.5686,-2.5679,-2.5705,-2.5696,-2.5691,-2.5673,-2.5694,-2.5707,-2.5822,-2.5911,-2.5736,-2.5743,-2.6127,-2.6137,-2.6146,-2.6297,0,0,0,0,0,0,-2.5549,-2.5572,-2.5634,-2.5644,-2.5662,-2.5819,-2.5691,-2.5684,-2.5718,-2.5705,-2.5723,-2.5721,-2.5691,-2.5811,-2.583,-2.5918,-2.5749,-2.6119,-2.6132,-2.6143,-2.6284,-2.631,-2.6333,0,0,0,0,0,-2.5542,-2.5674,-2.5637,-2.5656,-2.5739,-2.5824,-2.5834,-2.5796,-2.5726,-2.5788,-2.5782,-2.572,-2.5897,-2.5824,-2.5844,-2.5936,-2.6114,-2.6128,-2.6142,-2.6273,-2.6305,-2.6332,0,0,0,0,0,0,-2.5676,-2.5675,-2.5634,-2.5774,-2.58,-2.5804,-2.5881,-2.5831,-2.5879,-2.5865,-2.5815,-2.582,-2.5946,-2.5951,-2.587,-2.6094,-2.5994,-2.6012,-2.6087,-2.6117,-2.6141,-2.6138,-2.5755,0,0,0,0,0,-2.5722,-2.5791,-2.5786,-2.591,-2.5925,-2.5901,-2.5937,-2.5905,-2.593,-2.5941,-2.5943,-2.5971,-2.6032,-2.6074,-2.6131,-2.6283,-2.6286,-2.6356,-2.638,-2.64,-2.6418,-2.65,-2.6531,-2.6195,-2.6195,-2.6195,0,0,-2.5818,-2.5825,-2.5872,-2.5937,-2.5954,-2.6027,-2.5911,-2.5994,-2.6048,-2.5954,-2.6063,-2.6066,-2.6093,-2.6228,-2.6287,-2.6237,-2.6511,-2.6418,-2.6434,-2.6441,-2.6518,-2.655,-2.6578,-2.6205,-2.6203,-2.6201,0,0,-2.603,-2.6042,-2.6147,-2.6166,-2.6192,-2.6174,-2.62,-2.6211,-2.6209,-2.6317,-2.6248,-2.6311,-2.6419,-2.6441,-2.6467,-2.6685,-2.6631,-2.6705,-2.6834,-2.6914,-2.6941,-2.6964,-2.7044,-2.7073,-2.6722,-2.6722,-2.6722,0,-2.6146,-2.6254,-2.6208,-2.6295,-2.6326,-2.6242,-2.6349,-2.6369,-2.6412,-2.6436,-2.6378,-2.651,-2.6522,-2.6662,-2.6715,-2.6738,-2.6766,-2.6704,-2.694,-2.6963,-2.6984,-2.706,-2.709,-2.6731,-2.673,-2.6729,-2.6728,0,-2.6396,-2.6471,-2.6553,-2.6597,-2.6636,-2.6733,-2.6702,-2.6747,-2.6711,-2.67,-2.6812,-2.6823,-2.688,-2.691,-2.6876,-2.7045,-2.7013,-2.6948,-2.6847,-2.7026,-2.7097,-2.7125,-2.6744,-2.6741,-2.6738,-2.6736,0,0,-2.6698,-2.6713,-2.6745,-2.6763,-2.6785,-2.6842,-2.6934,-2.699,-2.703,-2.7062,-2.7139,-2.7231,-2.7171,-2.72,-2.7167,-2.7237,-2.7412,-2.7164,-2.7164,-2.7212,-2.76,-2.7651,-2.7685,-2.7374,-2.7379,-2.7384,-2.7599,0,-2.691,-2.7069,-2.703,-2.7187,-2.7257,-2.7177,-2.7257,-2.728,-2.7271,-2.7329,-2.7319,-2.7386,-2.7301,-2.7318,-2.7383,-2.7377,-2.749,-2.736,-2.7447,-2.7451,-2.7446,-2.7721,-2.7775,-2.7978,-2.7626,-2.763,-2.7633,0,-2.718,-2.7222,-2.7387,-2.7397,-2.7424,-2.7497,-2.7545,-2.76,-2.7623,-2.7612,-2.7644,-2.7596,-2.7688,-2.7582,-2.7708,-2.7621,-2.7653,-2.7655,-2.7662,-2.7672,-2.7556,-2.7741,-2.8041,-2.8073,-2.7676,-2.7673,-2.767,0,-2.7387,-2.7484,-2.7595,-2.7614,-2.7627,-2.7681,-2.7689,-2.7706,-2.7741,-2.7782,-2.7805,-2.7856,-2.7885,-2.7925,-2.7893,-2.7819,-2.8025,-2.7916,-2.8019,-2.802,-2.8069,-2.8067,-2.8382,-2.8085,-2.8085,-2.8084,-2.8084,0,-2.763,-2.7735,-2.7689,-2.7758,-2.7872,-2.7825,-2.794,-2.7938,-2.7954,-2.8021,-2.7954,-2.8019,-2.7971,-2.8032,-2.8007,-2.8115,-2.8128,-2.8122,-2.8115,-2.8131,-2.8132,-2.8154,-2.814,-2.8092,-2.809,-2.8089,-2.8088,0,-2.7883,-2.7856,-2.7972,-2.7974,-2.7977,-2.8062,-2.8064,-2.8128,-2.8113,-2.82,-2.8217,-2.8195,-2.8262,-2.8233,-2.8305,-2.8287,-2.8428,-2.84,-2.8421,-2.8415,-2.852,-2.8512,-2.8863,-2.8907,-2.8579,-2.8583,-2.8585,0,-2.8041,-2.812,-2.813,-2.817,-2.8183,-2.8248,-2.8284,-2.8239,-2.8279,-2.831,-2.8371,-2.8432,-2.848,-2.8592,-2.8582,-2.8636,-2.8611,-2.873,-2.8619,-2.8632,-2.8616,-2.8613,-2.8622,-2.8754,-2.8758,-2.8761,-2.8764,0,-2.8327,-2.8309,-2.8362,-2.8412,-2.8456,-2.8493,-2.8524,-2.856,-2.8517,-2.8565,-2.8633,-2.867,-2.8742,-2.8804,-2.8852,-2.886,-2.8806,-2.8798,-2.8825,-2.8843,-2.8853,-2.8851,-2.8485,-2.8791,-2.8788,-2.8786,-2.8785,-2.8784,-2.8539,-2.8605,-2.8623,-2.8685,-2.8703,-2.8733,-2.8793,-2.8785,-2.8841,-2.8897,-2.8866,-2.8946,-2.8965,-2.9023,-2.9039,-2.9101,-2.9054,-2.9093,-2.9103,-2.9115,-2.913,-2.884,-2.9109,-2.9108,-2.9107,-2.9106,-2.9106,0,-2.8822,-2.8829,-2.8887,-2.8932,-2.8981,-2.8922,-2.8953,-2.8998,-2.9069,-2.9092,-2.9139,-2.9218,-2.9277,-2.9271,-2.9326,-2.9377,-2.9354,-2.9393,-2.9391,-2.9394,-2.9167,-2.9139,-2.9411,-2.9411,-2.9411,-2.9411,-2.9411,-2.9411,-2.8976,-2.9086,-2.907,-2.9188,-2.9193,-2.9271,-2.9294,-2.9321,-2.9339,-2.9429,-2.9478,-2.9473,-2.9485,-2.9539,-2.9592,-2.9588,-2.9613,-2.9663,-2.9651,-2.944,-2.941,-2.9381,-2.9355,-2.9668,-2.9668,-2.9872,-2.9874,-2.9876]},{"header":{"parameterUnit":"m.s-1","parameterCategory":1,"la1":30.2991,"la2":30.254,"lo1":-89.0895,"lo2":-89.0444,"dy":0.0017,"dx":0.0017,"nx":28,"ny":28,"refTime":"2024-11-30T09:00:00:Z","depth":0,"parameterNumber":3,"parameterNumberName":"V-component_of_WINDS"},"data":[0,0,0,0,0,0,0,0,0,0,0,0,0,0,0,0,0,0,0,0,0,0,0,0,0,0,0,0,0,0,0,0,0,0,0,0,0,0,0,0,0,0,0,0,0,0,0,0,0,0,0,0,0,0,0,0,0,0,-5.9777,-5.9778,0,-5.9881,-5.9882,-5.9883,-5.9795,-5.9791,-5.9788,-5.9784,-5.9886,-5.9892,-5.9898,0,0,0,0,0,0,0,0,0,0,0,0,0,-5.9496,-5.9502,-5.9776,-5.9778,-5.9779,-5.988,-5.9882,-5.9883,-5.9796,-5.9791,-5.9787,-5.9783,-5.9884,-5.9891,-5.9898,0,0,0,0,0,0,0,0,0,0,0,0,0,-5.9611,-5.9503,-5.9776,-5.9748,-5.9746,-5.988,-5.9882,-5.9884,-5.9797,-5.9791,-5.9786,-5.9781,-5.9881,-5.989,-5.9899,-6.0065,0,0,-5.9927,-5.9931,0,0,0,0,0,0,0,0,-5.9604,-5.9621,-5.9751,-5.975,-5.9748,-5.9819,-5.982,-5.9944,-5.9798,-5.9777,-5.9784,-5.9778,-5.9868,-5.9878,-5.9909,-6.007,-6.0074,-5.9928,-5.9934,-5.9937,-5.994,0,0,0,0,0,0,0,-5.9596,-5.9616,-5.9817,-5.9753,-5.9751,-5.9728,-5.9738,-5.9843,-5.9852,-5.9779,-5.9773,-5.9786,-5.9866,-5.99,-5.9911,-6.0076,-5.9928,-5.9936,-5.9942,-5.9945,-6.0376,-6.0382,0,0,0,0,0,0,-5.9592,-5.961,-5.9814,-5.9821,-5.9662,-5.9737,-5.9749,-5.9802,-5.985,-5.9853,-5.9791,-5.9782,-5.9887,-5.99,-5.9914,-6.011,-5.9937,-5.9946,-5.9951,-6.037,-6.0377,-6.0384,0,0,0,0,0,0,-5.9587,-5.9611,-5.981,-5.9714,-5.9737,-5.9748,-5.9808,-5.9807,-5.9841,-5.986,-5.986,-5.9825,-5.9884,-5.9901,-6.0028,-6.0113,-5.995,-5.9958,-6.0363,-6.0372,-6.038,-6.0505,0,0,0,0,0,0,-5.9579,-5.961,-5.9674,-5.9716,-5.9743,-5.9925,-5.9814,-5.9813,-5.9858,-5.9847,-5.9892,-5.9894,-5.9881,-6.0015,-6.0037,-6.0122,-5.9966,-6.0355,-6.0367,-6.0378,-6.0494,-6.0518,-6.0538,0,0,0,0,0,-5.9569,-5.9705,-5.9678,-5.9703,-5.9824,-5.993,-5.9945,-5.9929,-5.9865,-5.9929,-5.9941,-5.9892,-6.01,-6.0029,-6.0053,-6.0142,-6.035,-6.0364,-6.0377,-6.0484,-6.0513,-6.0537,0,0,0,0,0,0,-5.9671,-5.971,-5.9681,-5.9834,-5.988,-5.9915,-5.9995,-5.996,-6.0023,-6.001,-5.9985,-5.9996,-6.013,-6.0148,-6.0069,-6.0304,-6.0214,-6.0233,-6.0288,-6.0315,-6.0337,-6.0329,-5.9973,0,0,0,0,0,-5.9712,-5.9796,-5.9824,-5.9957,-5.9981,-5.9985,-6.003,-6.0014,-6.0059,-6.0077,-6.0098,-6.0142,-6.0217,-6.0267,-6.0337,-6.0496,-6.0503,-6.0569,-6.0591,-6.0609,-6.0625,-6.0709,-6.0738,-6.0428,-6.0428,-6.0427,0,0,-5.9796,-5.9827,-5.9882,-5.9978,-6.0011,-6.0098,-6.0001,-6.0097,-6.016,-6.0091,-6.0213,-6.023,-6.0277,-6.0421,-6.0485,-6.044,-6.0713,-6.0626,-6.064,-6.0647,-6.0726,-6.0755,-6.0782,-6.0437,-6.0435,-6.0434,0,0,-5.9993,-6.0027,-6.014,-6.0176,-6.0228,-6.0229,-6.0256,-6.0297,-6.0306,-6.0428,-6.0378,-6.0451,-6.0582,-6.0617,-6.0653,-6.0863,-6.082,-6.0886,-6.1001,-6.1083,-6.1108,-6.1129,-6.1203,-6.123,-6.0903,-6.0903,-6.0903,0,-6.0091,-6.0221,-6.0202,-6.0302,-6.0345,-6.0288,-6.0402,-6.0436,-6.0508,-6.0538,-6.0488,-6.0649,-6.0677,-6.0828,-6.0879,-6.091,-6.0939,-6.0881,-6.1106,-6.1127,-6.1147,-6.1217,-6.1246,-6.0911,-6.091,-6.0909,-6.0908,0,-6.0338,-6.0428,-6.0513,-6.0586,-6.0638,-6.0744,-6.074,-6.0795,-6.0774,-6.078,-6.0903,-6.0935,-6.101,-6.1045,-6.1024,-6.1192,-6.1163,-6.111,-6.1019,-6.1185,-6.125,-6.1277,-6.0922,-6.0919,-6.0917,-6.0915,0,0,-6.0603,-6.0664,-6.0695,-6.0727,-6.078,-6.0848,-6.0951,-6.1026,-6.1073,-6.1124,-6.1208,-6.1319,-6.127,-6.131,-6.1293,-6.1365,-6.1529,-6.1303,-6.1304,-6.1343,-6.1714,-6.1753,-6.1785,-6.1501,-6.1506,-6.151,-6.171,0,-6.0802,-6.0982,-6.0968,-6.1138,-6.122,-6.1167,-6.1256,-6.1297,-6.1305,-6.1374,-6.1382,-6.1461,-6.1391,-6.1415,-6.1484,-6.1494,-6.1603,-6.148,-6.1577,-6.1581,-6.1567,-6.1819,-6.1861,-6.2048,-6.1735,-6.174,-6.1743,0,-6.1059,-6.112,-6.1299,-6.1338,-6.1372,-6.1453,-6.152,-6.1588,-6.1632,-6.1632,-6.1678,-6.1648,-6.1749,-6.1656,-6.1794,-6.1711,-6.1749,-6.176,-6.1767,-6.1775,-6.1672,-6.1833,-6.2108,-6.2136,-6.1783,-6.178,-6.1777,0,-6.1233,-6.136,-6.1483,-6.1512,-6.1562,-6.1619,-6.1642,-6.1682,-6.1727,-6.1785,-6.1814,-6.1883,-6.192,-6.1972,-6.1961,-6.1895,-6.2102,-6.2008,-6.2103,-6.2104,-6.2149,-6.2146,-6.2433,-6.2175,-6.2175,-6.2174,-6.2174,0,-6.1457,-6.1568,-6.1562,-6.1638,-6.176,-6.1742,-6.1862,-6.1878,-6.1913,-6.1989,-6.1947,-6.2019,-6.2,-6.2071,-6.2062,-6.2177,-6.2194,-6.2196,-6.2192,-6.22,-6.22,-6.2225,-6.2211,-6.2182,-6.218,-6.2179,-6.2177,0,-6.1672,-6.1673,-6.1804,-6.184,-6.1852,-6.194,-6.197,-6.2041,-6.2045,-6.2142,-6.2163,-6.217,-6.2251,-6.2245,-6.2336,-6.233,-6.2471,-6.2452,-6.2457,-6.2453,-6.2548,-6.2539,-6.2861,-6.2901,-6.2618,-6.2621,-6.2623,0,-6.1815,-6.1899,-6.1945,-6.1994,-6.2021,-6.21,-6.2147,-6.2131,-6.2181,-6.2238,-6.2301,-6.2378,-6.244,-6.2571,-6.2582,-6.2651,-6.2633,-6.2741,-6.2643,-6.2648,-6.2634,-6.2629,-6.2637,-6.276,-6.2763,-6.2766,-6.2768,0,-6.2068,-6.2064,-6.2134,-6.2204,-6.2261,-6.2315,-6.2365,-6.2406,-6.2396,-6.2453,-6.2537,-6.2584,-6.2677,-6.2754,-6.2819,-6.284,-6.2803,-6.2799,-6.2824,-6.2833,-6.2832,-6.2833,-6.2509,-6.2791,-6.2789,-6.2787,-6.2786,-6.2785,-6.225,-6.2322,-6.2366,-6.2445,-6.2481,-6.2528,-6.2595,-6.2609,-6.2678,-6.2754,-6.274,-6.2833,-6.2873,-6.2958,-6.2985,-6.3056,-6.3017,-6.3054,-6.3064,-6.3073,-6.3084,-6.2821,-6.3068,-6.3067,-6.3067,-6.3066,-6.3066,0,-6.25,-6.2526,-6.2598,-6.2669,-6.2731,-6.2691,-6.2744,-6.2797,-6.288,-6.2922,-6.2983,-6.3078,-6.3152,-6.317,-6.324,-6.3293,-6.3278,-6.3312,-6.3308,-6.3313,-6.3115,-6.3086,-6.3324,-6.3324,-6.3324,-6.3324,-6.3324,-6.3324,-6.2637,-6.2757,-6.2758,-6.2894,-6.2918,-6.3011,-6.3044,-6.3086,-6.3119,-6.3228,-6.329,-6.3301,-6.3333,-6.3405,-6.347,-6.3473,-6.3501,-6.3542,-6.3539,-6.3353,-6.3327,-6.3303,-6.3275,-6.3549,-6.3549,-6.373,-6.3732,-6.3733]}]]